Theta_e
315 316 317 323 324 323 322 323 321 323 322 318 318 320 322 321 321 322 321 322 319 320 325 329 330 332 331 331 331 329 327 326 326 326 325 325 324 321 319 320 322 325 327 323 321 320 320 319 320
315 316 319 324 322 321 319 321 324 322 319 317 317 318 320 322 320 320 321 322 321 318 322 325 327 327 330 330 326 327 326 326 326 325 323 323 320 320 319 319 322 324 324 321 320 321 322 320 321
314 316 322 322 322 320 321 322 321 319 317 319 320 318 320 321 320 320 321 322 321 318 318 319 320 324 325 325 328 326 326 329 332 332 330 318 316 317 318 320 322 323 321 320 320 317 315 314 314
316 320 319 321 321 322 321 321 320 320 317 317 318 320 318 319 320 320 319 320 321 320 317 315 314 315 316 318 328 327 328 332 333 332 328 316 315 315 315 314 315 316 317 316 314 313 312 311 310
317 319 320 321 320 319 319 318 318 320 319 318 317 320 318 318 317 317 319 318 321 320 320 317 315 315 314 313 320 327 331 333 332 327 317 314 313 313 313 312 312 312 312 312 310 306 304 304 304
318 319 319 319 319 319 319 318 317 318 318 317 317 318 319 317 317 316 316 318 319 321 321 320 319 316 313 316 326 332 331 331 328 315 313 312 312 311 310 309 308 307 305 304 303 303 303 303 303
319 319 319 319 320 320 320 315 318 319 318 319 317 319 319 317 317 317 317 317 317 320 321 320 320 316 314 314 320 326 328 329 324 315 312 310 310 308 306 304 304 304 303 303 303 303 304 304 304
319 320 320 320 320 319 318 316 316 317 319 316 316 319 319 318 317 317 317 317 317 318 318 319 319 318 315 313 314 316 317 318 316 314 312 310 308 305 304 304 304 304 304 304 304 304 305 305 306
317 320 320 319 318 318 317 318 314 316 316 315 316 317 318 317 317 317 317 317 317 317 317 317 319 319 316 314 314 314 314 314 314 312 311 309 306 303 304 304 304 304 303 304 304 305 305 305 305
319 320 319 318 317 317 317 316 317 317 318 317 316 317 317 317 316 316 316 316 316 317 317 317 317 318 318 316 314 314 314 314 313 311 310 308 305 303 304 304 304 304 304 304 304 304 305 305 305
319 319 319 316 315 314 316 316 316 317 319 318 318 317 317 317 316 316 316 316 316 316 316 317 317 316 317 318 315 314 313 313 313 310 309 308 305 303 304 304 304 304 304 304 304 305 305 305 305
318 318 318 317 315 315 316 316 316 316 317 317 317 316 316 315 316 316 315 315 315 315 316 316 316 316 316 317 317 314 313 313 313 311 309 308 306 303 304 305 305 304 304 304 304 304 304 304 304
318 318 317 317 315 315 315 316 317 317 316 316 316 314 314 314 314 315 315 315 315 315 315 315 316 316 316 316 316 316 315 313 313 312 309 308 307 304 304 304 305 304 304 304 304 303 303 303 303
316 315 316 315 315 315 315 316 314 315 315 314 314 314 314 314 314 314 314 315 315 316 316 315 315 315 316 316 316 316 316 315 313 313 311 309 307 306 304 304 305 304 304 304 304 303 303 303 303
313 315 316 315 313 314 313 315 315 315 315 313 314 314 314 314 314 314 314 315 316 315 315 315 315 315 315 315 316 316 315 315 315 314 312 310 308 307 304 303 304 304 304 303 303 303 303 303 303
313 313 315 315 312 312 314 316 316 315 312 313 314 314 314 314 314 313 313 314 314 314 314 314 314 315 315 315 315 315 315 315 315 314 313 311 309 307 305 303 302 303 303 303 303 303 302 302 302
314 315 316 315 312 313 314 315 316 313 312 313 313 313 313 313 313 313 313 313 312 313 313 313 313 313 314 314 314 314 315 315 315 315 314 313 310 308 305 304 302 302 302 302 302 302 302 301 301
317 315 314 313 314 312 312 313 314 313 312 312 312 313 313 313 313 312 312 312 312 312 312 312 312 312 312 313 313 313 314 314 315 315 314 314 312 309 306 305 302 301 301 301 301 301 301 301 300
314 313 314 314 314 312 313 313 313 312 312 312 313 313 314 313 313 311 311 311 312 312 312 312 312 312 312 312 312 312 313 313 314 314 314 314 313 311 308 306 303 301 301 301 301 300 300 300 300
313 313 314 314 313 311 313 313 313 313 313 313 313 313 313 313 312 311 311 311 311 311 311 310 311 310 310 311 311 310 311 311 312 313 314 314 313 312 309 306 305 302 300 300 300 300 300 299 299
313 313 313 314 312 311 311 314 314 315 313 312 312 312 311 311 310 309 310 311 311 311 310 310 309 310 310 309 308 308 308 309 309 310 312 313 313 312 310 308 305 302 300 300 301 299 299 299 299
314 314 312 311 312 313 310 315 316 315 315 313 313 311 311 310 308 308 307 309 310 310 309 309 310 309 309 308 307 307 307 309 309 309 309 310 311 312 310 308 305 303 301 300 300 299 299 298 299
313 309 309 310 311 311 313 313 318 311 315 315 313 310 308 306 305 305 305 305 306 308 309 309 309 308 307 306 306 306 306 305 304 305 308 308 308 309 311 308 305 302 300 300 300 299 298 298 298
308 310 310 309 311 315 316 314 316 315 314 314 313 306 305 304 303 303 304 307 308 307 307 307 307 307 308 307 306 305 304 304 304 305 305 304 305 306 307 309 306 303 301 300 300 300 299 298 297
309 311 316 320 318 320 310 315 314 314 312 311 307 305 304 303 302 303 305 305 305 307 307 306 306 305 305 306 305 304 304 303 303 303 303 303 303 304 306 306 307 305 303 301 300 299 299 298 297
310 314 321 324 324 323 318 321 319 314 310 306 305 305 303 302 301 301 301 303 303 303 303 303 304 304 304 304 304 303 303 303 302 302 302 302 302 303 302 303 304 305 304 302 301 300 299 298 297
314 313 313 316 317 318 318 318 316 311 311 307 306 305 302 301 300 299 302 302 302 302 302 301 302 302 303 303 303 303 303 303 302 302 301 301 302 302 301 301 301 302 303 303 302 301 300 299 297
310 309 313 315 319 321 318 316 316 314 311 309 306 303 300 299 298 298 297 297 299 300 301 301 301 301 300 300 300 301 301 302 303 303 302 300 300 301 301 300 301 301 302 302 301 301 300 299 298
308 311 313 313 316 318 318 315 313 312 308 307 303 299 298 297 296 296 296 297 297 297 298 298 298 298 300 299 298 299 299 300 300 302 303 302 300 299 299 299 300 300 300 300 301 300 300 300 299
312 314 315 316 315 313 313 314 309 307 304 301 298 296 296 294 293 293 293 294 294 293 293 294 296 297 296 295 296 296 297 297 298 299 300 301 302 301 299 299 298 298 299 299 299 300 299 299 299
Wind_Speed
5 4 4 3 4 3 3 2 2 3 2 1 3 3 5 6 4 5 2 4 8 21 24 24 22 20 20 20 18 17 15 14 13 12 11 11 11 10 9 8 8 8 9 5 4 3 2 2 1
4 3 2 1 4 4 2 0 2 2 1 2 5 4 6 7 9 10 7 6 9 18 23 25 24 22 20 19 18 18 17 15 14 15 14 15 14 12 10 9 10 11 12 7 6 6 5 4 4
2 1 3 2 2 3 3 1 2 2 3 5 3 4 4 3 5 4 5 7 12 18 23 24 24 24 23 20 19 19 17 15 14 13 13 13 11 9 9 10 11 12 13 10 9 8 9 8 7
1 1 2 4 7 9 6 6 8 9 2 5 4 6 5 10 5 6 4 7 13 17 21 22 23 23 23 22 21 19 17 16 17 16 14 12 11 10 10 11 13 13 12 11 11 9 8 8 8
3 1 3 3 6 5 8 9 7 5 2 3 3 3 5 9 10 12 9 6 12 15 18 21 22 22 22 22 22 20 20 20 20 18 13 12 12 11 10 11 11 11 11 10 9 8 7 6 5
2 1 3 5 4 6 8 7 5 6 3 2 4 6 5 7 6 7 11 10 12 15 17 19 21 22 21 22 23 21 22 23 23 16 14 13 12 11 11 11 10 10 10 9 7 5 4 3 3
2 2 3 5 7 5 2 1 3 3 3 5 3 4 5 9 6 7 7 11 13 17 19 20 21 23 23 23 23 22 23 25 25 19 15 14 12 12 12 11 10 9 8 7 6 5 5 4 4
3 3 2 4 3 5 2 2 3 5 4 5 5 5 6 8 12 11 11 12 15 19 20 22 23 25 26 25 24 25 25 25 24 20 17 15 14 14 14 12 12 11 10 9 8 7 6 5 5
4 4 5 4 5 3 4 5 5 6 9 8 11 18 18 23 20 18 15 16 18 20 22 23 25 26 28 27 26 25 25 24 24 21 20 17 17 16 16 15 13 12 12 11 10 8 7 6 5
6 4 6 5 7 5 5 6 8 7 14 17 17 23 22 21 22 22 21 21 22 23 24 25 26 28 29 30 28 27 27 27 25 25 23 21 20 18 17 15 14 13 12 11 9 7 7 6 5
6 7 8 9 14 9 9 9 7 12 16 19 17 16 15 21 23 25 26 25 25 23 26 26 27 28 30 31 31 32 31 30 29 27 26 23 22 22 21 20 18 17 15 13 12 10 9 7 6
6 14 15 7 7 5 8 8 10 17 35 29 26 24 23 26 27 26 26 25 24 26 26 29 29 31 31 32 33 34 34 33 33 31 29 27 27 26 25 23 21 19 18 16 14 13 11 9 8
9 12 13 17 14 14 16 26 18 29 34 34 28 28 27 25 25 26 27 26 25 27 26 29 30 32 33 35 35 37 37 37 35 34 33 31 30 29 27 25 23 23 21 18 17 15 13 10 8
3 10 16 13 16 15 12 30 6 22 19 25 20 25 24 24 21 23 26 25 26 24 23 26 30 34 36 37 38 39 39 39 39 38 36 35 33 32 31 30 28 27 24 22 19 17 14 12 10
5 11 16 17 14 10 10 13 17 29 15 22 26 22 20 23 28 34 28 26 23 23 23 26 28 32 38 39 40 42 41 42 42 41 40 39 38 36 34 33 32 30 28 25 22 20 17 14 12
6 4 11 4 5 4 10 20 21 16 11 17 22 27 30 36 33 29 34 36 35 36 36 35 34 34 37 41 43 45 46 44 44 44 43 42 41 39 38 37 35 33 31 29 26 24 21 18 15
8 13 17 16 9 3 12 12 15 10 12 31 33 35 37 34 36 26 24 28 27 31 32 34 34 38 38 40 44 47 49 48 48 47 46 45 44 43 42 40 38 37 35 33 30 27 24 21 18
14 10 9 11 5 8 12 19 20 32 30 36 38 40 32 26 28 22 20 19 18 20 21 24 26 31 35 40 45 49 51 53 52 52 50 48 47 46 44 42 41 40 39 37 33 31 28 24 22
16 16 21 20 18 13 22 21 18 27 33 36 38 31 23 19 17 16 18 15 12 11 15 18 22 23 29 35 42 48 53 53 54 54 52 51 50 49 47 46 45 44 43 40 37 35 31 29 26
17 21 22 21 17 7 18 24 24 23 31 34 31 23 19 17 14 16 22 20 17 14 12 14 17 21 25 29 34 40 42 47 49 53 55 54 53 52 50 49 48 47 46 43 41 39 37 34 31
18 17 19 21 14 13 13 15 3 9 15 17 15 15 11 10 16 21 24 25 25 21 12 15 15 16 18 22 27 31 38 38 39 45 52 54 54 54 51 51 50 49 48 47 46 44 41 39 34
21 15 17 15 7 9 5 10 11 14 15 5 13 12 12 18 21 22 24 28 29 29 22 15 12 13 15 16 21 26 29 35 38 41 42 47 51 54 53 53 53 51 50 49 48 46 44 42 39
9 5 5 4 7 6 6 7 4 2 11 5 9 12 18 20 19 22 24 27 29 30 29 28 24 18 12 10 13 19 23 25 24 31 37 39 40 46 54 54 55 54 53 52 50 48 46 45 42
0 5 6 2 4 8 9 8 3 2 2 2 11 19 17 19 21 23 24 29 28 25 25 26 25 22 19 17 13 13 17 21 26 30 34 36 35 35 43 55 56 56 55 54 52 50 48 46 45
2 4 5 6 5 8 4 4 7 12 4 8 12 13 21 24 24 29 33 31 29 27 26 25 23 22 19 15 13 12 12 15 21 23 29 31 34 36 35 43 55 58 56 55 53 52 51 50 50
4 4 4 5 8 17 5 9 5 5 10 19 21 17 16 19 21 23 25 26 26 27 27 27 26 23 21 19 18 16 15 14 16 18 23 26 31 33 34 37 41 55 57 57 56 55 52 52 51
5 8 8 13 9 6 10 16 14 6 8 12 12 12 14 15 16 18 21 23 24 25 25 25 24 25 26 24 22 20 17 17 18 18 21 21 25 29 31 34 36 40 53 58 58 57 56 55 53
8 2 3 3 6 7 8 18 15 12 8 5 9 12 14 15 16 15 16 19 22 23 23 24 26 26 24 23 23 23 23 21 18 20 22 22 22 23 26 30 33 37 41 50 58 59 58 58 57
4 6 5 3 5 6 14 14 15 5 8 7 9 14 16 17 18 18 18 20 21 22 24 26 26 25 25 26 25 23 23 23 23 20 21 23 24 23 24 27 30 33 38 43 50 58 61 61 59
11 17 20 13 12 13 17 19 8 11 8 5 4 4 6 10 13 14 14 16 18 21 22 22 24 25 26 27 26 27 26 25 24 23 23 22 24 25 25 25 29 32 35 39 46 51 59 63 63
Wind_Direction
253 271 307 336 254 254 258 206 300 266 254 265 142 246 310 306 289 324 320 218 188 194 196 198 203 197 196 195 192 194 199 204 211 219 228 232 236 242 240 231 226 236 250 271 283 258 254 260 247
262 286 332 291 262 272 62 349 238 333 302 232 229 240 259 288 260 276 281 220 192 189 199 203 206 208 207 204 205 202 204 212 218 225 229 233 236 242 244 231 226 232 248 265 268 266 265 255 243
262 300 294 308 270 309 347 202 21 347 260 222 247 247 284 248 265 244 277 227 197 191 199 205 209 211 214 214 208 208 206 211 220 212 220 226 219 216 222 229 232 239 249 255 251 256 262 267 266
138 44 59 269 277 280 267 294 296 305 239 222 259 260 253 249 263 247 284 244 210 201 201 207 208 212 214 216 213 211 204 207 215 207 214 228 232 226 231 236 236 243 252 257 261 261 261 262 262
152 140 244 267 274 273 264 287 286 285 291 204 212 293 262 280 267 267 261 244 223 215 209 208 209 212 214 215 214 210 205 207 218 217 226 235 234 237 235 235 240 245 252 259 265 272 271 268 260
147 222 243 271 276 273 285 272 272 258 264 233 231 264 268 298 295 273 252 245 224 220 217 216 215 215 213 212 205 205 208 214 225 234 235 233 237 234 230 234 237 238 239 243 241 235 237 242 249
215 221 275 279 285 284 260 220 237 289 254 248 238 267 272 282 290 297 259 238 227 217 216 219 219 217 219 219 213 213 212 220 231 238 238 235 232 230 227 225 225 227 229 226 219 212 216 223 233
166 230 225 231 264 282 218 220 230 250 292 244 207 242 276 273 291 286 268 248 232 227 224 221 221 220 220 222 222 221 223 225 235 238 238 233 229 226 221 217 216 213 211 211 214 218 227 238 245
170 233 243 241 207 224 200 236 207 239 259 244 240 249 273 284 279 273 262 250 241 237 232 227 223 222 224 225 225 225 227 227 232 234 235 232 229 223 218 215 213 209 206 208 211 215 222 232 239
214 238 246 230 220 242 257 246 278 261 264 257 261 268 280 284 274 265 263 258 250 244 242 235 230 226 225 227 226 227 229 230 232 232 230 227 228 224 221 219 217 216 213 214 219 224 231 240 249
189 238 247 242 240 253 272 268 247 269 272 264 270 286 278 280 278 271 267 263 259 254 243 243 238 233 229 229 227 227 228 229 230 231 230 229 226 222 220 220 216 215 214 216 218 222 227 231 236
232 243 244 262 244 242 262 283 260 248 263 277 284 280 279 278 278 274 273 267 257 252 248 243 238 237 236 232 230 231 231 231 231 230 229 228 227 224 223 222 219 217 216 218 219 221 221 222 225
232 252 251 250 255 254 270 266 266 266 271 283 280 282 286 281 281 278 276 269 255 249 244 243 242 240 238 236 234 233 232 233 234 232 231 229 228 228 228 226 224 222 221 221 221 220 221 224 230
261 262 272 265 256 245 240 270 259 265 282 287 287 290 286 286 295 300 278 265 262 259 252 247 245 241 240 239 237 238 236 235 233 233 233 231 230 228 227 226 225 225 223 224 224 224 226 228 232
303 294 288 262 250 231 215 263 234 270 270 279 289 292 293 290 292 294 294 279 271 267 266 258 253 248 243 242 239 238 238 237 236 235 233 232 231 230 229 227 226 225 225 225 225 227 227 229 233
262 250 279 285 173 208 191 270 278 287 280 283 286 286 283 284 283 284 286 280 275 274 272 271 261 252 247 245 243 241 238 237 238 237 235 233 231 230 229 229 227 227 225 225 226 226 226 227 230
224 266 261 285 232 201 204 270 284 287 298 292 286 285 281 286 290 290 284 289 282 276 273 268 259 252 249 247 245 244 242 241 238 237 237 236 233 231 230 230 229 229 227 226 225 225 225 225 228
261 249 250 256 274 234 266 258 277 285 289 281 284 281 286 288 288 308 314 303 301 285 273 266 259 254 250 247 244 242 241 240 239 239 238 237 236 234 231 231 230 229 228 226 226 225 224 223 224
280 272 271 277 282 297 283 287 285 282 280 279 280 286 291 287 311 335 349 335 320 296 284 274 266 263 255 249 242 240 241 241 240 240 240 239 238 236 233 232 231 229 229 228 227 225 223 222 222
259 265 273 277 275 285 287 293 288 272 270 272 281 291 290 305 345 22 33 24 12 336 305 289 283 274 264 257 254 246 245 244 244 242 242 240 238 236 235 234 233 231 229 227 227 227 223 220 221
252 262 269 276 306 273 297 284 246 294 268 290 290 288 310 357 33 27 28 31 29 20 332 314 308 283 270 267 259 251 244 244 247 244 244 242 240 240 237 237 236 233 232 230 230 227 225 225 220
274 267 267 277 286 282 359 292 293 274 284 334 26 69 61 71 36 25 32 37 36 28 22 2 331 325 297 277 264 259 258 254 256 258 258 254 247 243 240 239 238 236 234 233 232 231 229 225 224
272 352 297 282 261 294 240 259 321 260 263 181 59 58 73 45 38 41 41 45 47 50 49 47 40 26 7 328 295 280 273 263 262 259 261 262 264 252 243 241 240 238 236 234 234 233 231 231 229
35 300 273 228 267 262 264 222 100 190 276 351 59 79 54 48 42 41 41 44 43 37 34 34 33 31 29 20 359 321 299 286 274 276 272 272 269 260 250 242 240 241 240 238 237 234 232 233 233
171 300 299 260 222 268 93 269 273 274 255 4 84 69 50 40 40 36 35 33 29 25 24 23 23 20 13 12 4 345 328 306 292 286 279 275 273 269 264 252 242 239 240 241 241 239 236 233 231
175 217 207 277 283 291 286 256 266 297 62 65 56 51 46 40 37 36 35 33 28 25 21 20 20 21 18 13 357 341 328 315 300 295 290 286 282 279 274 265 255 244 240 239 240 240 240 238 236
193 216 242 258 268 273 253 270 277 18 169 72 59 48 44 39 37 32 25 22 19 19 17 15 14 10 14 12 5 359 343 325 312 301 292 288 288 285 279 274 266 255 246 243 241 240 239 238 237
226 83 219 184 227 231 260 288 273 251 169 70 47 34 26 19 18 18 15 11 7 3 0 358 360 2 2 358 358 357 355 346 328 313 302 293 287 284 283 277 270 265 255 248 245 244 241 239 237
188 211 212 199 223 284 278 273 312 344 80 71 26 13 13 12 8 5 5 3 1 1 358 355 356 357 350 349 349 348 347 347 347 335 318 306 292 285 278 276 271 266 263 258 250 245 244 241 239
254 263 252 243 250 247 254 256 106 114 107 99 84 38 2 6 6 3 5 2 358 357 357 356 351 349 351 350 348 347 345 342 341 342 340 327 311 300 290 276 270 267 262 261 260 254 247 245 242